This demonstration page uses our WeatherBlox Daily Observations layout. Learn more.

Left ArrowRight Arrow

44.8408, -93.29828

Hourly Observations for July 22, 2019

Temp ( °F °C ) Dew Point ( °F °C ) Humidity (%) Winds ( mph kmh ) Pressure ( in mb ) Visibility ( mi km ) Precip ( " mm )
12:53 am 00:53 Mostly Clear 68 20 55 12.8 63 63 N 12 19 30.12 1020 10 16 0.00 0.00
1:53 am 01:53 Clear 66 18.9 54 12.2 65 65 N 9 15 30.14 1021 10 16 0.00 0.00
2:53 am 02:53 Clear 65 18.3 52 11.1 63 63 N 8 13 30.15 1021 10 16 0.00 0.00
3:53 am 03:53 Clear 63 17.2 52 11.1 68 68 N 8 13 30.16 1021 10 16 0.00 0.00
4:53 am 04:53 Clear 62 16.7 51 10.6 67 67 N 7 11 30.17 1022 10 16 0.00 0.00
5:53 am 05:53 Sunny 61 16.1 50 10 67 67 N 9 15 30.19 1022 10 16 0.00 0.00
6:53 am 06:53 Sunny 62 16.7 51 10.6 67 67 N 8 13 30.20 1023 10 16 0.00 0.00
7:53 am 07:53 Sunny 64 17.8 50 10 60 60 N 10 17 30.22 1023 10 16 0.00 0.00
8:53 am 08:53 Mostly Sunny 68 20 50 10 53 53 N 9 15 30.23 1024 10 16 0.00 0.00
9:53 am 09:53 Mostly Sunny 71 21.7 51 10.6 49 49 NNE 8 13 30.23 1024 10 16 0.00 0.00
11:53 am 11:53 Mostly Sunny 74 23.3 51 10.6 45 45 N 9 15 30.23 1024 10 16 0.00 0.00
12:53 pm 12:53 Partly Cloudy 76 24.4 48 8.9 37 37 N 14 22 30.22 1023 10 16 0.00 0.00
1:53 pm 13:53 Partly Cloudy 78 25.6 53 11.7 42 42 NW 12 19 30.21 1023 10 16 0.00 0.00
2:53 pm 14:53 Partly Cloudy 77 25 49 9.4 37 37 NNW 8 13 30.20 1023 10 16 0.00 0.00
3:53 pm 15:53 Partly Cloudy 79 26.1 51 10.6 38 38 N 8 13 30.19 1022 10 16 0.00 0.00
4:53 pm 16:53 Partly Cloudy 78 25.6 49 9.4 36 36 N 15 24 30.19 1022 10 16 0.00 0.00
5:53 pm 17:53 Mostly Sunny 79 26.1 51 10.6 38 38 N 8 13 30.18 1022 10 16 0.00 0.00
6:53 pm 18:53 Mostly Sunny 78 25.6 50 10 37 37 NNW 9 15 30.17 1022 10 16 0.00 0.00
7:53 pm 19:53 Sunny 75 23.9 51 10.6 43 43 NW 10 17 30.17 1022 10 16 0.00 0.00
8:53 pm 20:53 Clear 72 22.2 52 11.1 50 50 NW 6 9 30.18 1022 10 16 0.00 0.00
9:53 pm 21:53 Clear 71 21.7 54 12.2 55 55 NW 3 6 30.18 1022 10 16 0.00 0.00
10:53 pm 22:53 Clear 70 21.1 54 12.2 57 57 NW 5 7 30.19 1022 10 16 0.00 0.00
11:53 pm 23:53 Clear 66 18.9 55 12.8 68 68 NW 6 9 30.20 1023 10 16 0.00 0.00

Powered by AerisWeather